| time (UTC) | temp F | wind direction | speed MPH | gust MPH | rain 1hr in | rain 24hr in | rain mn in | humidity % | barometer mb |
| 20260903202523 | 97 | 184 | 9.0 | 17.0 | 0.00 | 0.00 | 0.00 | 40 | 1009.0 |
| 20260903202027 | 97 | 223 | 8.0 | 12.0 | 0.00 | 0.00 | 0.00 | 40 | 1009.1 |
| 20260903201522 | 97 | 219 | 5.0 | 16.0 | 0.00 | 0.00 | 0.00 | 41 | 1009.1 |
| 20260903201022 | 96 | 270 | 4.0 | 16.0 | 0.00 | 0.00 | 0.00 | 41 | 1009.1 |
| 20260903200521 | 97 | 162 | 5.0 | 14.0 | 0.00 | 0.00 | 0.00 | 41 | 1009.2 |
| 20260903200019 | 96 | 230 | 5.0 | 21.0 | 0.00 | 0.00 | 0.00 | 42 | 1009.2 |
| 20260903195519 | 96 | 146 | 11.0 | 21.0 | 0.00 | 0.00 | 0.00 | 42 | 1009.2 |
| 20260903195020 | 96 | 224 | 4.0 | 14.0 | 0.00 | 0.00 | 0.00 | 42 | 1009.2 |
| 20260903194515 | 96 | 186 | 5.0 | 17.0 | 0.00 | 0.00 | 0.00 | 42 | 1009.3 |
| 20260903194014 | 95 | 261 | 6.0 | 17.0 | 0.00 | 0.00 | 0.00 | 41 | 1009.4 |
| 20260903193514 | 96 | 214 | 6.0 | 15.0 | 0.00 | 0.00 | 0.00 | 42 | 1009.4 |
| 20260903192512 | 95 | 297 | 6.0 | 15.0 | 0.00 | 0.00 | 0.00 | 42 | 1009.6 |
| 20260903192015 | 95 | 151 | 7.0 | 20.0 | 0.00 | 0.00 | 0.00 | 42 | 1009.6 |
| 20260903191512 | 95 | 184 | 9.0 | 20.0 | 0.00 | 0.00 | 0.00 | 42 | 1009.7 |
| 20260903191012 | 95 | 183 | 8.0 | 18.0 | 0.00 | 0.00 | 0.00 | 41 | 1009.7 |
| 20260903190513 | 95 | 157 | 11.0 | 17.0 | 0.00 | 0.00 | 0.00 | 41 | 1009.8 |
| 20260903190012 | 95 | 246 | 6.0 | 15.0 | 0.00 | 0.00 | 0.00 | 42 | 1009.9 |
| 20260903185509 | 95 | 159 | 9.0 | 18.0 | 0.00 | 0.00 | 0.00 | 42 | 1009.9 |
| 20260903185009 | 95 | 194 | 5.0 | 18.0 | 0.00 | 0.00 | 0.00 | 42 | 1010.0 |
| 20260903184509 | 95 | 177 | 11.0 | 19.0 | 0.00 | 0.00 | 0.00 | 41 | 1009.8 |
| 20260903184008 | 95 | 225 | 4.0 | 16.0 | 0.00 | 0.00 | 0.00 | 42 | 1010.1 |
| 20260903183509 | 95 | 232 | 8.0 | 16.0 | 0.00 | 0.00 | 0.00 | 42 | 1010.1 |
| 20260903182506 | 95 | 179 | 7.0 | 17.0 | 0.00 | 0.00 | 0.00 | 43 | 1010.3 |
| 20260903182005 | 94 | 179 | 7.0 | 17.0 | 0.00 | 0.00 | 0.00 | 44 | 1010.3 |
| 20260903181503 | 94 | 190 | 7.0 | 14.0 | 0.00 | 0.00 | 0.00 | 44 | 1010.5 |
| 20260903181002 | 93 | 194 | 6.0 | 17.0 | 0.00 | 0.00 | 0.00 | 44 | 1010.5 |
| 20260903180502 | 93 | 165 | 8.0 | 16.0 | 0.00 | 0.00 | 0.00 | 45 | 1010.6 |
| 20260903180003 | 93 | 175 | 10.0 | 18.0 | 0.00 | 0.00 | 0.00 | 44 | 1010.6 |
| 20260903175602 | 94 | 166 | 11.0 | 17.0 | 0.00 | 0.00 | 0.00 | 43 | 1010.7 |
| 20260903175059 | 93 | 205 | 10.0 | 17.0 | 0.00 | 0.00 | 0.00 | 45 | 1010.8 |
| 20260903174558 | 93 | 165 | 9.0 | 19.0 | 0.00 | 0.00 | 0.00 | 45 | 1010.9 |
| 20260903174058 | 93 | 195 | 8.0 | 21.0 | 0.00 | 0.00 | 0.00 | 45 | 1011.0 |
| 20260903173556 | 93 | 158 | 12.0 | 21.0 | 0.00 | 0.00 | 0.00 | 45 | 1011.1 |
| 20260903173159 | 92 | 147 | 10.0 | 18.0 | 0.00 | 0.00 | 0.00 | 47 | 1011.2 |
| 20260903172556 | 92 | 159 | 10.0 | 18.0 | 0.00 | 0.00 | 0.00 | 47 | 1011.2 |
| 20260903172056 | 92 | 244 | 7.0 | 16.0 | 0.00 | 0.00 | 0.00 | 47 | 1011.4 |
| 20260903171558 | 92 | 200 | 8.0 | 17.0 | 0.00 | 0.00 | 0.00 | 47 | 1011.4 |
| 20260903171057 | 92 | 167 | 10.0 | 18.0 | 0.00 | 0.00 | 0.00 | 47 | 1011.5 |
| 20260903170555 | 92 | 209 | 9.0 | 18.0 | 0.00 | 0.00 | 0.00 | 49 | 1011.5 |
| 20260903170055 | 91 | 130 | 9.0 | 18.0 | 0.00 | 0.00 | 0.00 | 48 | 1011.5 |
| 20260903165553 | 91 | 172 | 10.0 | 18.0 | 0.00 | 0.00 | 0.00 | 49 | 1011.5 |
| 20260903165052 | 90 | 159 | 8.0 | 13.0 | 0.00 | 0.00 | 0.00 | 50 | 1011.6 |
| 20260903164552 | 90 | 138 | 6.0 | 13.0 | 0.00 | 0.00 | 0.00 | 51 | 1011.7 |
| 20260903164051 | 90 | 224 | 4.0 | 11.0 | 0.00 | 0.00 | 0.00 | 51 | 1011.7 |
| 20260903163550 | 90 | 200 | 4.0 | 10.0 | 0.00 | 0.00 | 0.00 | 51 | 1011.7 |
| 20260903163150 | 90 | 219 | 7.0 | 17.0 | 0.00 | 0.00 | 0.00 | 52 | 1011.8 |
| 20260903162550 | 90 | 144 | 8.0 | 17.0 | 0.00 | 0.00 | 0.00 | 52 | 1011.8 |
| 20260903162049 | 90 | 157 | 7.0 | 14.0 | 0.00 | 0.00 | 0.00 | 52 | 1011.7 |
| 20260903161548 | 89 | 200 | 6.0 | 12.0 | 0.00 | 0.00 | 0.00 | 53 | 1011.8 |
| 20260903161048 | 89 | 215 | 6.0 | 12.0 | 0.00 | 0.00 | 0.00 | 52 | 1011.8 |
| 20260903160548 | 89 | 158 | 6.0 | 13.0 | 0.00 | 0.00 | 0.00 | 52 | 1011.9 |
| 20260903155548 | 89 | 242 | 8.0 | 11.0 | 0.00 | 0.00 | 0.00 | 53 | 1011.9 |
| 20260903155046 | 88 | 198 | 3.0 | 14.0 | 0.00 | 0.00 | 0.00 | 54 | 1011.9 |
| 20260903154544 | 88 | 178 | 4.0 | 14.0 | 0.00 | 0.00 | 0.00 | 55 | 1011.9 |
| 20260903154044 | 87 | 186 | 9.0 | 14.0 | 0.00 | 0.00 | 0.00 | 55 | 1011.9 |
| 20260903153544 | 87 | 208 | 6.0 | 15.0 | 0.00 | 0.00 | 0.00 | 55 | 1012.0 |
| 20260903153143 | 87 | 154 | 8.0 | 13.0 | 0.00 | 0.00 | 0.00 | 56 | 1011.9 |
| 20260903152542 | 86 | 175 | 7.0 | 14.0 | 0.00 | 0.00 | 0.00 | 56 | 1011.9 |
| 20260903152041 | 86 | 210 | 8.0 | 12.0 | 0.00 | 0.00 | 0.00 | 57 | 1012.0 |
| 20260903151541 | 86 | 219 | 6.0 | 16.0 | 0.00 | 0.00 | 0.00 | 57 | 1012.1 |
| 20260903151041 | 86 | 160 | 8.0 | 16.0 | 0.00 | 0.00 | 0.00 | 57 | 1012.0 |
| 20260903150540 | 86 | 205 | 4.0 | 12.0 | 0.00 | 0.00 | 0.00 | 59 | 1012.2 |
| 20260903150039 | 85 | 162 | 7.0 | 12.0 | 0.00 | 0.00 | 0.00 | 59 | 1012.2 |
| 20260903145539 | 85 | 197 | 7.0 | 12.0 | 0.00 | 0.00 | 0.00 | 60 | 1012.3 |
| 20260903145036 | 85 | 184 | 6.0 | 15.0 | 0.00 | 0.00 | 0.00 | 61 | 1012.3 |
| 20260903144536 | 84 | 184 | 9.0 | 15.0 | 0.00 | 0.00 | 0.00 | 61 | 1012.3 |
| 20260903144038 | 84 | 176 | 7.0 | 14.0 | 0.00 | 0.00 | 0.00 | 61 | 1012.3 |
| 20260903143537 | 84 | 194 | 6.0 | 10.0 | 0.00 | 0.00 | 0.00 | 61 | 1012.4 |
| 20260903143133 | 83 | 178 | 7.0 | 14.0 | 0.00 | 0.00 | 0.00 | 63 | 1012.5 |
| 20260903142537 | 83 | 182 | 4.0 | 12.0 | 0.00 | 0.00 | 0.00 | 63 | 1012.4 |
| 20260903142035 | 83 | 159 | 6.0 | 13.0 | 0.00 | 0.00 | 0.00 | 64 | 1012.4 |
| 20260903141532 | 83 | 218 | 4.0 | 14.0 | 0.00 | 0.00 | 0.00 | 65 | 1012.4 |
| 20260903141031 | 82 | 134 | 7.0 | 14.0 | 0.00 | 0.00 | 0.00 | 65 | 1012.4 |
| 20260903140531 | 82 | 180 | 4.0 | 10.0 | 0.00 | 0.00 | 0.00 | 67 | 1012.5 |
| 20260903140029 | 82 | 153 | 7.0 | 11.0 | 0.00 | 0.00 | 0.00 | 68 | 1012.5 |
| 20260903135527 | 81 | 159 | 8.0 | 11.0 | 0.00 | 0.00 | 0.00 | 68 | 1012.6 |
| 20260903135026 | 81 | 166 | 5.0 | 10.0 | 0.00 | 0.00 | 0.00 | 69 | 1012.6 |
| 20260903134525 | 81 | 176 | 4.0 | 9.0 | 0.00 | 0.00 | 0.00 | 70 | 1012.6 |
| 20260903134023 | 80 | 174 | 6.0 | 10.0 | 0.00 | 0.00 | 0.00 | 71 | 1012.6 |
| 20260903133524 | 80 | 183 | 4.0 | 9.0 | 0.00 | 0.00 | 0.00 | 72 | 1012.7 |
| 20260903133123 | 79 | 164 | 5.0 | 7.0 | 0.00 | 0.00 | 0.00 | 73 | 1012.6 |
| 20260903132522 | 79 | 173 | 5.0 | 8.0 | 0.00 | 0.00 | 0.00 | 73 | 1012.6 |
| 20260903132021 | 79 | 170 | 3.0 | 6.0 | 0.00 | 0.00 | 0.00 | 75 | 1012.5 |
| 20260903131521 | 78 | 198 | 1.0 | 5.0 | 0.00 | 0.00 | 0.00 | 76 | 1012.5 |
| 20260903131021 | 78 | 169 | 0.0 | 0.0 | 0.00 | 0.00 | 0.00 | 78 | 1012.5 |
| 20260903130520 | 77 | 169 | 0.0 | 0.0 | 0.00 | 0.00 | 0.00 | 79 | 1012.5 |
| 20260903130020 | 76 | 169 | 0.0 | 0.0 | 0.00 | 0.00 | 0.00 | 81 | 1012.6 |
| 20260903125520 | 76 | 169 | 0.0 | 0.0 | 0.00 | 0.00 | 0.00 | 81 | 1012.6 |
| 20260903125019 | 75 | 169 | 0.0 | 0.0 | 0.00 | 0.00 | 0.00 | 82 | 1012.5 |
| 20260903124518 | 75 | 169 | 0.0 | 0.0 | 0.00 | 0.00 | 0.00 | 82 | 1012.5 |
| 20260903124018 | 74 | 169 | 0.0 | 0.0 | 0.00 | 0.00 | 0.00 | 83 | 1012.5 |
| 20260903123521 | 74 | 169 | 0.0 | 0.0 | 0.00 | 0.00 | 0.00 | 84 | 1012.5 |
| 20260903123118 | 73 | 169 | 0.0 | 0.0 | 0.00 | 0.00 | 0.00 | 85 | 1012.3 |
| 20260903122519 | 73 | 169 | 0.0 | 0.0 | 0.00 | 0.00 | 0.00 | 85 | 1012.4 |
| 20260903122017 | 73 | 169 | 0.0 | 0.0 | 0.00 | 0.00 | 0.00 | 86 | 1012.3 |
| 20260903121516 | 72 | 169 | 0.0 | 0.0 | 0.00 | 0.00 | 0.00 | 86 | 1012.2 |
| 20260903121015 | 72 | 169 | 0.0 | 0.0 | 0.00 | 0.00 | 0.00 | 87 | 1012.1 |
| 20260903120516 | 72 | 169 | 0.0 | 0.0 | 0.00 | 0.00 | 0.00 | 87 | 1012.1 |
| 20260903120016 | 72 | 169 | 0.0 | 0.0 | 0.00 | 0.00 | 0.00 | 87 | 1012.1 |
| 20260903115514 | 71 | 169 | 0.0 | 0.0 | 0.00 | 0.00 | 0.00 | 87 | 1012.0 |
| 20260903115014 | 71 | 169 | 0.0 | 0.0 | 0.00 | 0.00 | 0.00 | 87 | 1012.0 |
| 20260903114514 | 71 | 169 | 0.0 | 0.0 | 0.00 | 0.00 | 0.00 | 86 | 1012.0 |
| 20260903114012 | 72 | 169 | 0.0 | 0.0 | 0.00 | 0.00 | 0.00 | 85 | 1011.9 |
| 20260903113511 | 72 | 169 | 0.0 | 0.0 | 0.00 | 0.00 | 0.00 | 84 | 1011.9 |
| 20260903113111 | 73 | 169 | 0.0 | 0.0 | 0.00 | 0.00 | 0.00 | 84 | 1011.8 |
| 20260903112512 | 73 | 169 | 0.0 | 0.0 | 0.00 | 0.00 | 0.00 | 84 | 1011.8 |
| 20260903112011 | 73 | 169 | 0.0 | 0.0 | 0.00 | 0.00 | 0.00 | 84 | 1011.9 |
| 20260903111510 | 73 | 169 | 0.0 | 0.0 | 0.00 | 0.00 | 0.00 | 84 | 1011.9 |
| 20260903111009 | 73 | 169 | 0.0 | 0.0 | 0.00 | 0.00 | 0.00 | 83 | 1011.9 |
| 20260903110509 | 74 | 169 | 0.0 | 0.0 | 0.00 | 0.00 | 0.00 | 82 | 1011.8 |
| 20260903110007 | 74 | 169 | 0.0 | 0.0 | 0.00 | 0.00 | 0.00 | 82 | 1011.8 |
| 20260903105507 | 74 | 169 | 0.0 | 0.0 | 0.00 | 0.00 | 0.00 | 82 | 1011.8 |
| 20260903105008 | 74 | 169 | 0.0 | 0.0 | 0.00 | 0.00 | 0.00 | 82 | 1011.8 |
| 20260903104506 | 74 | 169 | 0.0 | 0.0 | 0.00 | 0.00 | 0.00 | 82 | 1011.7 |
| 20260903104005 | 74 | 169 | 0.0 | 0.0 | 0.00 | 0.00 | 0.00 | 83 | 1011.7 |
| 20260903103505 | 74 | 169 | 0.0 | 0.0 | 0.00 | 0.00 | 0.00 | 82 | 1011.7 |
| 20260903103106 | 74 | 169 | 0.0 | 0.0 | 0.00 | 0.00 | 0.00 | 82 | 1011.6 |
| 20260903102508 | 74 | 169 | 0.0 | 0.0 | 0.00 | 0.00 | 0.00 | 82 | 1011.6 |
| 20260903102008 | 74 | 169 | 0.0 | 0.0 | 0.00 | 0.00 | 0.00 | 82 | 1011.6 |
| 20260903101504 | 74 | 169 | 0.0 | 2.0 | 0.00 | 0.00 | 0.00 | 82 | 1011.5 |
| 20260903101003 | 74 | 169 | 0.0 | 2.0 | 0.00 | 0.00 | 0.00 | 82 | 1011.5 |
| 20260903100503 | 74 | 169 | 0.0 | 0.0 | 0.00 | 0.00 | 0.00 | 82 | 1011.6 |
| 20260903100005 | 74 | 169 | 0.0 | 0.0 | 0.00 | 0.00 | 0.00 | 81 | 1011.5 |
| 20260903095505 | 74 | 169 | 0.0 | 1.0 | 0.00 | 0.00 | 0.00 | 81 | 1011.5 |
| 20260903095001 | 74 | 169 | 0.0 | 1.0 | 0.00 | 0.00 | 0.00 | 81 | 1011.5 |
| 20260903094501 | 74 | 169 | 0.0 | 3.0 | 0.00 | 0.00 | 0.00 | 81 | 1011.5 |
| 20260903094001 | 74 | 169 | 0.0 | 3.0 | 0.00 | 0.00 | 0.00 | 81 | 1011.4 |
| 20260903093501 | 74 | 169 | 2.0 | 4.0 | 0.00 | 0.00 | 0.00 | 80 | 1011.4 |
| 20260903093135 | 75 | 169 | 0.0 | 1.0 | 0.00 | 0.00 | 0.00 | 79 | 1011.5 |
| 20260903092501 | 75 | 169 | 0.0 | 0.0 | 0.00 | 0.00 | 0.00 | 79 | 1011.4 |
| 20260903092100 | 75 | 169 | 0.0 | 0.0 | 0.00 | 0.00 | 0.00 | 79 | 1011.4 |
| 20260903091601 | 75 | 169 | 0.0 | 0.0 | 0.00 | 0.00 | 0.00 | 79 | 1011.4 |
| 20260903091059 | 75 | 169 | 0.0 | 0.0 | 0.00 | 0.00 | 0.00 | 78 | 1011.4 |
| 20260903090557 | 75 | 169 | 0.0 | 0.0 | 0.00 | 0.00 | 0.00 | 77 | 1011.5 |
| 20260903090059 | 76 | 169 | 0.0 | 0.0 | 0.00 | 0.00 | 0.00 | 77 | 1011.4 |
| 20260903085555 | 76 | 169 | 0.0 | 0.0 | 0.00 | 0.00 | 0.00 | 76 | 1011.4 |
| 20260903085054 | 76 | 169 | 0.0 | 0.0 | 0.00 | 0.00 | 0.00 | 75 | 1011.4 |
| 20260903084554 | 77 | 169 | 0.0 | 0.0 | 0.00 | 0.00 | 0.00 | 75 | 1011.3 |
| 20260903084054 | 77 | 169 | 0.0 | 0.0 | 0.00 | 0.00 | 0.00 | 75 | 1011.3 |
| 20260903083553 | 77 | 169 | 0.0 | 0.0 | 0.00 | 0.00 | 0.00 | 75 | 1011.3 |
| 20260903083054 | 77 | 169 | 0.0 | 0.0 | 0.00 | 0.00 | 0.00 | 75 | 1011.4 |
| 20260903082554 | 77 | 169 | 0.0 | 0.0 | 0.00 | 0.00 | 0.00 | 74 | 1011.3 |
| 20260903082051 | 77 | 169 | 0.0 | 0.0 | 0.00 | 0.00 | 0.00 | 74 | 1011.3 |
| 20260903081551 | 77 | 169 | 0.0 | 0.0 | 0.00 | 0.00 | 0.00 | 74 | 1011.2 |
| 20260903081051 | 77 | 169 | 0.0 | 1.0 | 0.00 | 0.00 | 0.00 | 74 | 1011.2 |
| 20260903080553 | 77 | 169 | 0.0 | 1.0 | 0.00 | 0.00 | 0.00 | 74 | 1011.2 |
| 20260903080103 | 77 | 169 | 0.0 | 2.0 | 0.00 | 0.00 | 0.00 | 73 | 1011.1 |
| 20260903075550 | 77 | 169 | 0.0 | 3.0 | 0.00 | 0.00 | 0.00 | 73 | 1011.2 |
| 20260903075050 | 78 | 168 | 0.0 | 3.0 | 0.00 | 0.00 | 0.00 | 72 | 1011.2 |
| 20260903074602 | 78 | 169 | 1.0 | 5.0 | 0.00 | 0.00 | 0.00 | 72 | 1011.1 |
| 20260903074050 | 78 | 167 | 2.0 | 6.0 | 0.00 | 0.00 | 0.00 | 72 | 1011.2 |
| 20260903073549 | 78 | 165 | 3.0 | 6.0 | 0.00 | 0.00 | 0.00 | 73 | 1011.2 |
| 20260903073059 | 78 | 161 | 2.0 | 6.0 | 0.00 | 0.00 | 0.00 | 73 | 1011.2 |
| 20260903072547 | 78 | 181 | 1.0 | 4.0 | 0.00 | 0.00 | 0.00 | 72 | 1011.3 |
| 20260903072046 | 78 | 180 | 0.0 | 3.0 | 0.00 | 0.00 | 0.00 | 71 | 1011.2 |
| 20260903071548 | 78 | 180 | 0.0 | 3.0 | 0.00 | 0.00 | 0.00 | 71 | 1011.2 |
| 20260903071045 | 78 | 180 | 1.0 | 3.0 | 0.00 | 0.00 | 0.00 | 70 | 1011.2 |
| 20260903070547 | 79 | 180 | 0.0 | 5.0 | 0.00 | 0.00 | 0.00 | 70 | 1011.1 |
| 20260903070046 | 79 | 175 | 1.0 | 3.0 | 0.00 | 0.00 | 0.00 | 70 | 1011.2 |
| 20260903065547 | 79 | 175 | 1.0 | 3.0 | 0.00 | 0.00 | 0.00 | 70 | 1011.2 |
| 20260903065046 | 78 | 172 | 1.0 | 3.0 | 0.00 | 0.00 | 0.00 | 71 | 1011.2 |
| 20260903064546 | 78 | 170 | 0.0 | 3.0 | 0.00 | 0.00 | 0.00 | 71 | 1011.2 |
| 20260903064046 | 78 | 153 | 0.0 | 5.0 | 0.00 | 0.00 | 0.00 | 71 | 1011.2 |
| 20260903063545 | 78 | 153 | 1.0 | 6.0 | 0.00 | 0.00 | 0.00 | 71 | 1011.2 |
| 20260903063045 | 78 | 153 | 2.0 | 5.0 | 0.00 | 0.00 | 0.00 | 71 | 1011.2 |
| 20260903062545 | 78 | 153 | 3.0 | 5.0 | 0.00 | 0.00 | 0.00 | 71 | 1011.1 |
| 20260903062045 | 78 | 153 | 3.0 | 5.0 | 0.00 | 0.00 | 0.00 | 71 | 1011.2 |
| 20260903061547 | 78 | 152 | 2.0 | 5.0 | 0.00 | 0.00 | 0.00 | 70 | 1011.1 |
| 20260903061044 | 78 | 152 | 2.0 | 5.0 | 0.00 | 0.00 | 0.00 | 70 | 1011.1 |
| 20260903060545 | 78 | 152 | 2.0 | 5.0 | 0.00 | 0.00 | 0.00 | 70 | 1011.2 |
| 20260903060044 | 78 | 152 | 2.0 | 3.0 | 0.00 | 0.00 | 0.00 | 71 | 1011.0 |
| 20260903055544 | 78 | 152 | 2.0 | 3.0 | 0.00 | 0.00 | 0.00 | 71 | 1011.0 |
| 20260903055043 | 78 | 152 | 1.0 | 3.0 | 0.00 | 0.00 | 0.00 | 70 | 1011.1 |
| 20260903054542 | 78 | 152 | 1.0 | 3.0 | 0.00 | 0.00 | 0.00 | 70 | 1011.0 |
| 20260903054042 | 78 | 152 | 1.0 | 3.0 | 0.00 | 0.00 | 0.00 | 69 | 1011.0 |
| 20260903053540 | 79 | 152 | 0.0 | 2.0 | 0.00 | 0.00 | 0.00 | 69 | 1011.0 |
| 20260903053039 | 79 | 152 | 0.0 | 0.0 | 0.00 | 0.00 | 0.00 | 68 | 1011.0 |
| 20260903052540 | 79 | 152 | 0.0 | 2.0 | 0.00 | 0.00 | 0.00 | 68 | 1011.0 |
| 20260903052039 | 79 | 152 | 0.0 | 2.0 | 0.00 | 0.00 | 0.00 | 68 | 1011.0 |
| 20260903051539 | 79 | 152 | 0.0 | 3.0 | 0.00 | 0.00 | 0.00 | 68 | 1011.0 |
| 20260903051038 | 79 | 152 | 1.0 | 3.0 | 0.00 | 0.00 | 0.00 | 68 | 1010.9 |
| 20260903050537 | 79 | 152 | 1.0 | 2.0 | 0.00 | 0.00 | 0.00 | 67 | 1010.9 |
| 20260903050038 | 80 | 159 | 1.0 | 2.0 | 0.00 | 0.00 | 0.00 | 66 | 1010.8 |
| 20260903045535 | 80 | 159 | 1.0 | 2.0 | 0.00 | 0.00 | 0.00 | 66 | 1010.8 |
| 20260903045035 | 80 | 159 | 0.0 | 0.0 | 0.00 | 0.00 | 0.00 | 65 | 1010.8 |
| 20260903044535 | 80 | 159 | 0.0 | 5.0 | 0.00 | 0.00 | 0.00 | 65 | 1010.8 |
| 20260903044035 | 81 | 159 | 0.0 | 5.0 | 0.00 | 0.00 | 0.00 | 64 | 1010.8 |
| 20260903043535 | 81 | 159 | 2.0 | 5.0 | 0.00 | 0.00 | 0.00 | 64 | 1010.9 |
| 20260903043034 | 81 | 159 | 3.0 | 5.0 | 0.00 | 0.00 | 0.00 | 63 | 1010.9 |
| 20260903042534 | 81 | 159 | 3.0 | 5.0 | 0.00 | 0.00 | 0.00 | 63 | 1010.9 |
| 20260903042034 | 82 | 159 | 3.0 | 5.0 | 0.00 | 0.00 | 0.00 | 62 | 1010.9 |
| 20260903041539 | 82 | 159 | 2.0 | 5.0 | 0.00 | 0.00 | 0.00 | 62 | 1010.9 |
| 20260903041036 | 82 | 159 | 2.0 | 5.0 | 0.00 | 0.00 | 0.00 | 61 | 1010.9 |
| 20260903040534 | 83 | 159 | 2.0 | 5.0 | 0.00 | 0.00 | 0.00 | 61 | 1010.9 |
| 20260903040034 | 83 | 163 | 3.0 | 6.0 | 0.00 | 0.00 | 0.00 | 60 | 1010.9 |
| 20260903035533 | 83 | 163 | 3.0 | 6.0 | 0.00 | 0.00 | 0.00 | 60 | 1010.9 |
| 20260903035033 | 83 | 150 | 4.0 | 6.0 | 0.00 | 0.00 | 0.00 | 59 | 1010.9 |
| 20260903034544 | 84 | 135 | 3.0 | 5.0 | 0.00 | 0.00 | 0.00 | 59 | 1011.0 |
| 20260903034032 | 84 | 139 | 4.0 | 7.0 | 0.00 | 0.00 | 0.00 | 58 | 1011.0 |
| 20260903033536 | 85 | 138 | 4.0 | 8.0 | 0.00 | 0.00 | 0.00 | 58 | 1011.0 |
| 20260903033040 | 85 | 146 | 5.0 | 8.0 | 0.00 | 0.00 | 0.00 | 57 | 1010.9 |
| 20260903032534 | 85 | 148 | 5.0 | 9.0 | 0.00 | 0.00 | 0.00 | 56 | 1010.9 |
| 20260903032033 | 86 | 143 | 5.0 | 13.0 | 0.00 | 0.00 | 0.00 | 56 | 1010.9 |
| 20260903031537 | 86 | 144 | 7.0 | 13.0 | 0.00 | 0.00 | 0.00 | 56 | 1010.9 |
| 20260903031032 | 86 | 146 | 7.0 | 11.0 | 0.00 | 0.00 | 0.00 | 56 | 1010.9 |
| 20260903030532 | 86 | 143 | 7.0 | 11.0 | 0.00 | 0.00 | 0.00 | 55 | 1010.9 |
| 20260903030033 | 86 | 148 | 6.0 | 10.0 | 0.00 | 0.00 | 0.00 | 55 | 1010.9 |
| 20260903025534 | 86 | 143 | 6.0 | 10.0 | 0.00 | 0.00 | 0.00 | 55 | 1010.8 |
| 20260903025032 | 87 | 153 | 6.0 | 12.0 | 0.00 | 0.00 | 0.00 | 55 | 1010.8 |
| 20260903024532 | 87 | 130 | 6.0 | 11.0 | 0.00 | 0.00 | 0.00 | 54 | 1010.8 |
| 20260903024033 | 87 | 145 | 7.0 | 14.0 | 0.00 | 0.00 | 0.00 | 54 | 1010.8 |
| 20260903023535 | 87 | 154 | 8.0 | 13.0 | 0.00 | 0.00 | 0.00 | 54 | 1010.6 |
| 20260903023036 | 87 | 144 | 6.0 | 10.0 | 0.00 | 0.00 | 0.00 | 54 | 1010.6 |
| 20260903022532 | 87 | 137 | 5.0 | 10.0 | 0.00 | 0.00 | 0.00 | 54 | 1010.5 |
| 20260903022031 | 87 | 167 | 5.0 | 10.0 | 0.00 | 0.00 | 0.00 | 54 | 1010.5 |
| 20260903021531 | 87 | 173 | 4.0 | 10.0 | 0.00 | 0.00 | 0.00 | 53 | 1010.5 |
| 20260903021031 | 88 | 153 | 5.0 | 10.0 | 0.00 | 0.00 | 0.00 | 53 | 1010.5 |
| 20260903020533 | 88 | 145 | 6.0 | 10.0 | 0.00 | 0.00 | 0.00 | 53 | 1010.4 |
| 20260903020032 | 88 | 137 | 6.0 | 16.0 | 0.00 | 0.00 | 0.00 | 52 | 1010.1 |
| 20260903015531 | 88 | 147 | 7.0 | 16.0 | 0.00 | 0.00 | 0.00 | 53 | 1010.2 |
| 20260903015030 | 88 | 142 | 6.0 | 10.0 | 0.00 | 0.00 | 0.00 | 53 | 1010.2 |
| 20260903014546 | 88 | 145 | 5.0 | 8.0 | 0.00 | 0.00 | 0.00 | 52 | 1010.1 |
| 20260903014031 | 88 | 133 | 5.0 | 8.0 | 0.00 | 0.00 | 0.00 | 51 | 1010.0 |
| 20260903013531 | 89 | 150 | 4.0 | 8.0 | 0.00 | 0.00 | 0.00 | 51 | 1009.9 |
| 20260903013034 | 89 | 164 | 5.0 | 10.0 | 0.00 | 0.00 | 0.00 | 50 | 1009.8 |
| 20260903012533 | 89 | 153 | 6.0 | 10.0 | 0.00 | 0.00 | 0.00 | 50 | 1009.8 |
| 20260903012032 | 89 | 150 | 6.0 | 9.0 | 0.00 | 0.00 | 0.00 | 49 | 1009.7 |
| 20260903011535 | 89 | 141 | 6.0 | 9.0 | 0.00 | 0.00 | 0.00 | 49 | 1009.7 |
| 20260903011033 | 90 | 161 | 5.0 | 9.0 | 0.00 | 0.00 | 0.00 | 48 | 1009.7 |
| 20260903010530 | 90 | 152 | 4.0 | 10.0 | 0.00 | 0.00 | 0.00 | 47 | 1009.6 |
| 20260903010030 | 91 | 155 | 5.0 | 10.0 | 0.00 | 0.00 | 0.00 | 46 | 1009.6 |
| 20260903005531 | 91 | 149 | 5.0 | 10.0 | 0.00 | 0.00 | 0.00 | 46 | 1009.6 |
| 20260903005030 | 91 | 165 | 6.0 | 11.0 | 0.00 | 0.00 | 0.00 | 46 | 1009.6 |
| 20260903004541 | 91 | 168 | 7.0 | 11.0 | 0.00 | 0.00 | 0.00 | 45 | 1009.5 |
| 20260903004031 | 92 | 163 | 5.0 | 11.0 | 0.00 | 0.00 | 0.00 | 44 | 1009.4 |
| 20260903003531 | 92 | 163 | 6.0 | 11.0 | 0.00 | 0.00 | 0.00 | 44 | 1009.4 |
| 20260903003038 | 92 | 144 | 7.0 | 13.0 | 0.00 | 0.00 | 0.00 | 44 | 1009.3 |
| 20260903002530 | 93 | 168 | 9.0 | 13.0 | 0.00 | 0.00 | 0.00 | 43 | 1009.3 |
| 20260903002030 | 93 | 167 | 5.0 | 11.0 | 0.00 | 0.00 | 0.00 | 42 | 1009.3 |
| 20260903001530 | 93 | 161 | 5.0 | 11.0 | 0.00 | 0.00 | 0.00 | 42 | 1009.3 |
| 20260903001029 | 94 | 147 | 6.0 | 12.0 | 0.00 | 0.00 | 0.00 | 41 | 1009.3 |
| 20260903000529 | 94 | 167 | 7.0 | 14.0 | 0.00 | 0.00 | 0.00 | 40 | 1009.4 |
| 20260903000030 | 94 | 160 | 5.0 | 11.0 | 0.00 | 0.00 | 0.00 | 39 | 1009.3 |
| 20260902235529 | 94 | 153 | 6.0 | 11.0 | 0.00 | 0.00 | 0.00 | 39 | 1009.3 |
| 20260902235029 | 95 | 182 | 7.0 | 11.0 | 0.00 | 0.00 | 0.00 | 39 | 1009.3 |
| 20260902234528 | 95 | 159 | 7.0 | 16.0 | 0.00 | 0.00 | 0.00 | 39 | 1009.3 |
| 20260902234028 | 95 | 158 | 8.0 | 16.0 | 0.00 | 0.00 | 0.00 | 39 | 1009.3 |
| 20260902233527 | 95 | 163 | 8.0 | 12.0 | 0.00 | 0.00 | 0.00 | 39 | 1009.3 |
| 20260902233027 | 96 | 176 | 7.0 | 12.0 | 0.00 | 0.00 | 0.00 | 39 | 1009.3 |
| 20260902232529 | 96 | 180 | 7.0 | 10.0 | 0.00 | 0.00 | 0.00 | 37 | 1009.4 |
| 20260902232026 | 96 | 167 | 6.0 | 11.0 | 0.00 | 0.00 | 0.00 | 37 | 1009.4 |
| 20260902231526 | 96 | 182 | 7.0 | 12.0 | 0.00 | 0.00 | 0.00 | 37 | 1009.5 |
| 20260902231026 | 96 | 159 | 7.0 | 16.0 | 0.00 | 0.00 | 0.00 | 37 | 1009.5 |
| 20260902230531 | 96 | 165 | 9.0 | 16.0 | 0.00 | 0.00 | 0.00 | 37 | 1009.4 |
| 20260902230026 | 97 | 159 | 7.0 | 14.0 | 0.00 | 0.00 | 0.00 | 36 | 1009.4 |
| 20260902225527 | 97 | 141 | 8.0 | 14.0 | 0.00 | 0.00 | 0.00 | 36 | 1009.4 |
| 20260902225027 | 97 | 177 | 8.0 | 12.0 | 0.00 | 0.00 | 0.00 | 37 | 1009.4 |
| 20260902224526 | 97 | 146 | 8.0 | 14.0 | 0.00 | 0.00 | 0.00 | 37 | 1009.4 |
| 20260902224027 | 97 | 155 | 11.0 | 14.0 | 0.00 | 0.00 | 0.00 | 37 | 1009.4 |
| 20260902223528 | 97 | 109 | 9.0 | 16.0 | 0.00 | 0.00 | 0.00 | 36 | 1009.5 |
| 20260902223031 | 98 | 108 | 10.0 | 17.0 | 0.00 | 0.00 | 0.00 | 36 | 1009.5 |
| 20260902222525 | 98 | 165 | 12.0 | 17.0 | 0.00 | 0.00 | 0.00 | 36 | 1009.6 |
| 20260902222029 | 98 | 163 | 8.0 | 14.0 | 0.00 | 0.00 | 0.00 | 35 | 1009.6 |
| 20260902221525 | 98 | 138 | 4.0 | 9.0 | 0.00 | 0.00 | 0.00 | 36 | 1009.7 |
| 20260902221025 | 98 | 252 | 4.0 | 11.0 | 0.00 | 0.00 | 0.00 | 35 | 1009.7 |
| 20260902220525 | 98 | 210 | 6.0 | 15.0 | 0.00 | 0.00 | 0.00 | 35 | 1009.7 |
| 20260902220025 | 98 | 134 | 7.0 | 13.0 | 0.00 | 0.00 | 0.00 | 35 | 1009.7 |
| 20260902215523 | 98 | 116 | 8.0 | 13.0 | 0.00 | 0.00 | 0.00 | 35 | 1009.7 |
| 20260902215023 | 99 | 167 | 6.0 | 11.0 | 0.00 | 0.00 | 0.00 | 35 | 1009.8 |
| 20260902214528 | 99 | 165 | 5.0 | 13.0 | 0.00 | 0.00 | 0.00 | 34 | 1009.8 |
| 20260902214023 | 98 | 186 | 7.0 | 13.0 | 0.00 | 0.00 | 0.00 | 36 | 1009.8 |
| 20260902213522 | 98 | 96 | 8.0 | 15.0 | 0.00 | 0.00 | 0.00 | 36 | 1009.8 |
| 20260902213027 | 98 | 101 | 10.0 | 15.0 | 0.00 | 0.00 | 0.00 | 36 | 1009.8 |
| 20260902212520 | 98 | 107 | 8.0 | 17.0 | 0.00 | 0.00 | 0.00 | 36 | 1009.9 |
| 20260902212020 | 98 | 108 | 8.0 | 17.0 | 0.00 | 0.00 | 0.00 | 36 | 1009.9 |
| 20260902211520 | 98 | 149 | 4.0 | 8.0 | 0.00 | 0.00 | 0.00 | 36 | 1010.0 |
| 20260902211020 | 97 | 98 | 3.0 | 11.0 | 0.00 | 0.00 | 0.00 | 37 | 1010.0 |
| 20260902210519 | 97 | 113 | 3.0 | 13.0 | 0.00 | 0.00 | 0.00 | 37 | 1010.1 |
| 20260902210026 | 98 | 128 | 9.0 | 14.0 | 0.00 | 0.00 | 0.00 | 36 | 1010.1 |
| 20260902205518 | 98 | 123 | 9.0 | 14.0 | 0.00 | 0.00 | 0.00 | 36 | 1010.1 |
| 20260902205017 | 98 | 182 | 6.0 | 14.0 | 0.00 | 0.00 | 0.00 | 36 | 1010.2 |
| 20260902204518 | 98 | 144 | 4.0 | 11.0 | 0.00 | 0.00 | 0.00 | 36 | 1010.3 |
| 20260902204015 | 98 | 265 | 4.0 | 11.0 | 0.00 | 0.00 | 0.00 | 37 | 1010.3 |
| 20260902203515 | 98 | 138 | 5.0 | 12.0 | 0.00 | 0.00 | 0.00 | 37 | 1010.3 |
| 20260902203022 | 97 | 93 | 8.0 | 13.0 | 0.00 | 0.00 | 0.00 | 38 | 1010.4 |